QPF
0.00 0.00 0.00 0.00 0.00 0.00 0.00 0.00 0.00 0.00 0.00 0.00 0.00 0.00 0.00 0.00 0.00 0.00 0.00 0.00 0.01 0.00 0.00 0.00 0.00 0.00 0.00 0.00 0.00 0.00 0.00 0.00 0.00 0.00 0.00 0.00 0.01 0.05 0.02 0.01 0.00 0.00 0.00
0.00 0.00 0.00 0.00 0.00 0.00 0.00 0.00 0.00 0.00 0.00 0.00 0.00 0.00 0.00 0.00 0.00 0.00 0.00 0.00 0.00 0.02 0.02 0.03 0.01 0.00 0.00 0.00 0.00 0.00 0.00 0.00 0.00 0.00 0.00 0.01 0.02 0.02 0.00 0.00 0.00 0.00 0.00
0.00 0.00 0.00 0.00 0.00 0.00 0.00 0.00 0.00 0.00 0.00 0.00 0.00 0.00 0.00 0.01 0.01 0.00 0.00 0.00 0.01 0.07 0.09 0.09 0.01 0.00 0.00 0.00 0.00 0.00 0.00 0.00 0.00 0.00 0.00 0.00 0.01 0.00 0.00 0.00 0.00 0.00 0.00
0.00 0.00 0.00 0.00 0.00 0.00 0.00 0.00 0.00 0.00 0.00 0.00 0.00 0.00 0.00 0.02 0.00 0.00 0.00 0.00 0.01 0.18 0.14 0.03 0.00 0.00 0.00 0.00 0.00 0.00 0.00 0.00 0.00 0.00 0.00 0.00 0.00 0.00 0.00 0.00 0.00 0.00 0.00
0.00 0.01 0.05 0.03 0.01 0.03 0.04 0.02 0.02 0.01 0.00 0.01 0.01 0.02 0.02 0.02 0.01 0.01 0.01 0.02 0.06 0.16 0.09 0.01 0.03 0.01 0.00 0.00 0.00 0.00 0.00 0.00 0.00 0.00 0.00 0.00 0.00 0.00 0.00 0.00 0.00 0.00 0.00
0.06 0.09 0.11 0.08 0.02 0.00 0.01 0.00 0.00 0.00 0.00 0.00 0.04 0.06 0.06 0.04 0.14 0.11 0.05 0.02 0.04 0.10 0.12 0.08 0.15 0.03 0.00 0.00 0.00 0.00 0.00 0.00 0.00 0.00 0.00 0.00 0.00 0.00 0.00 0.00 0.00 0.00 0.01
0.15 0.13 0.13 0.09 0.05 0.04 0.02 0.01 0.00 0.00 0.00 0.00 0.00 0.04 0.08 0.17 0.38 0.20 0.12 0.01 0.02 0.21 0.23 0.20 0.16 0.02 0.00 0.00 0.00 0.00 0.00 0.00 0.00 0.00 0.00 0.00 0.00 0.00 0.00 0.00 0.00 0.00 0.01
0.00 0.00 0.01 0.03 0.01 0.01 0.01 0.01 0.01 0.00 0.00 0.00 0.00 0.05 0.11 0.42 0.18 0.12 0.13 0.03 0.04 0.20 0.20 0.22 0.08 0.01 0.00 0.00 0.00 0.00 0.00 0.00 0.00 0.00 0.00 0.00 0.00 0.00 0.00 0.00 0.00 0.00 0.00
0.00 0.00 0.00 0.00 0.01 0.01 0.00 0.00 0.02 0.03 0.02 0.01 0.01 0.12 0.01 0.07 0.20 0.14 0.10 0.01 0.00 0.20 0.24 0.11 0.03 0.02 0.01 0.00 0.00 0.00 0.00 0.00 0.00 0.00 0.00 0.00 0.00 0.00 0.00 0.00 0.00 0.00 0.01
0.00 0.00 0.00 0.00 0.01 0.01 0.03 0.03 0.02 0.01 0.02 0.04 0.01 0.01 0.01 0.01 0.03 0.01 0.00 0.01 0.00 0.00 0.01 0.02 0.02 0.03 0.01 0.00 0.00 0.00 0.00 0.00 0.00 0.00 0.00 0.00 0.00 0.00 0.00 0.00 0.00 0.00 0.00
0.00 0.00 0.00 0.00 0.00 0.01 0.02 0.04 0.05 0.02 0.05 0.02 0.00 0.00 0.00 0.00 0.00 0.00 0.00 0.01 0.04 0.05 0.01 0.00 0.00 0.02 0.00 0.00 0.00 0.00 0.00 0.00 0.00 0.00 0.00 0.00 0.00 0.00 0.00 0.00 0.00 0.00 0.00
0.00 0.00 0.00 0.00 0.00 0.00 0.00 0.00 0.00 0.04 0.08 0.03 0.00 0.01 0.00 0.00 0.00 0.00 0.00 0.01 0.02 0.02 0.01 0.00 0.00 0.00 0.00 0.00 0.00 0.00 0.00 0.00 0.00 0.00 0.00 0.00 0.00 0.00 0.00 0.00 0.00 0.00 0.00
0.00 0.00 0.00 0.00 0.00 0.00 0.00 0.00 0.00 0.03 0.09 0.13 0.12 0.10 0.08 0.00 0.00 0.00 0.00 0.05 0.09 0.01 0.01 0.00 0.00 0.00 0.00 0.00 0.00 0.00 0.00 0.00 0.00 0.00 0.00 0.00 0.00 0.00 0.00 0.00 0.00 0.00 0.00
0.00 0.00 0.00 0.00 0.00 0.00 0.00 0.00 0.00 0.00 0.02 0.03 0.05 0.05 0.04 0.02 0.01 0.00 0.00 0.03 0.05 0.02 0.00 0.00 0.00 0.00 0.00 0.00 0.00 0.00 0.00 0.00 0.00 0.00 0.00 0.00 0.00 0.00 0.00 0.00 0.00 0.00 0.00
0.00 0.00 0.00 0.00 0.00 0.00 0.00 0.00 0.00 0.00 0.00 0.00 0.02 0.02 0.01 0.01 0.01 0.00 0.01 0.03 0.04 0.01 0.00 0.00 0.00 0.00 0.00 0.00 0.00 0.00 0.00 0.00 0.00 0.00 0.00 0.00 0.00 0.00 0.00 0.00 0.00 0.00 0.00
0.00 0.00 0.00 0.00 0.00 0.00 0.00 0.00 0.00 0.00 0.00 0.00 0.00 0.00 0.04 0.02 0.03 0.02 0.01 0.03 0.04 0.02 0.01 0.00 0.00 0.00 0.00 0.00 0.00 0.00 0.00 0.00 0.00 0.00 0.00 0.00 0.00 0.00 0.00 0.00 0.00 0.00 0.00
0.00 0.00 0.00 0.00 0.00 0.00 0.00 0.00 0.00 0.00 0.00 0.00 0.01 0.00 0.01 0.02 0.02 0.01 0.02 0.03 0.05 0.05 0.00 0.00 0.00 0.00 0.00 0.00 0.00 0.00 0.00 0.00 0.00 0.00 0.00 0.00 0.00 0.00 0.00 0.00 0.00 0.00 0.00
0.00 0.00 0.00 0.00 0.00 0.00 0.00 0.00 0.00 0.00 0.00 0.00 0.01 0.00 0.00 0.00 0.00 0.00 0.00 0.01 0.04 0.04 0.05 0.00 0.00 0.00 0.00 0.00 0.00 0.00 0.00 0.00 0.00 0.00 0.00 0.00 0.00 0.00 0.00 0.00 0.00 0.00 0.00
0.00 0.00 0.00 0.00 0.00 0.00 0.00 0.00 0.00 0.00 0.00 0.01 0.01 0.01 0.01 0.00 0.00 0.00 0.00 0.00 0.01 0.00 0.04 0.02 0.00 0.00 0.00 0.02 0.02 0.01 0.02 0.01 0.01 0.00 0.00 0.00 0.00 0.00 0.00 0.00 0.00 0.00 0.00
0.00 0.00 0.00 0.00 0.00 0.00 0.00 0.00 0.00 0.00 0.00 0.00 0.01 0.01 0.01 0.01 0.00 0.00 0.00 0.00 0.01 0.00 0.02 0.04 0.02 0.03 0.01 0.01 0.01 0.02 0.07 0.09 0.06 0.02 0.00 0.00 0.00 0.00 0.00 0.00 0.00 0.00 0.00
0.00 0.00 0.00 0.00 0.00 0.00 0.00 0.00 0.00 0.00 0.00 0.00 0.01 0.03 0.05 0.02 0.00 0.02 0.00 0.00 0.00 0.00 0.00 0.00 0.00 0.00 0.00 0.00 0.00 0.00 0.00 0.01 0.03 0.02 0.02 0.00 0.00 0.00 0.00 0.00 0.00 0.00 0.00
0.00 0.00 0.00 0.00 0.00 0.00 0.00 0.00 0.00 0.00 0.00 0.00 0.00 0.01 0.03 0.01 0.02 0.05 0.05 0.01 0.00 0.00 0.00 0.00 0.00 0.00 0.00 0.00 0.00 0.00 0.00 0.00 0.00 0.00 0.01 0.00 0.00 0.00 0.00 0.00 0.00 0.00 0.00
0.00 0.00 0.00 0.00 0.00 0.00 0.00 0.00 0.00 0.00 0.00 0.00 0.00 0.01 0.01 0.02 0.04 0.08 0.12 0.06 0.01 0.03 0.02 0.01 0.00 0.00 0.00 0.00 0.00 0.00 0.00 0.00 0.00 0.00 0.00 0.00 0.01 0.00 0.00 0.00 0.00 0.00 0.00
0.00 0.00 0.00 0.00 0.00 0.00 0.00 0.00 0.00 0.00 0.00 0.00 0.00 0.01 0.03 0.03 0.05 0.06 0.07 0.08 0.05 0.03 0.02 0.02 0.01 0.00 0.00 0.00 0.00 0.00 0.00 0.00 0.00 0.00 0.00 0.00 0.00 0.00 0.00 0.00 0.00 0.00 0.00
0.00 0.00 0.00 0.00 0.00 0.00 0.00 0.00 0.00 0.00 0.00 0.00 0.00 0.02 0.05 0.07 0.09 0.11 0.06 0.03 0.02 0.02 0.02 0.02 0.00 0.00 0.00 0.00 0.00 0.00 0.00 0.00 0.00 0.00 0.00 0.00 0.00 0.00 0.00 0.00 0.00 0.00 0.00
0.00 0.00 0.00 0.00 0.00 0.00 0.00 0.00 0.00 0.00 0.00 0.00 0.03 0.06 0.08 0.10 0.12 0.14 0.09 0.04 0.02 0.04 0.00 0.00 0.00 0.00 0.00 0.00 0.00 0.01 0.01 0.00 0.00 0.00 0.00 0.00 0.00 0.00 0.00 0.00 0.00 0.00 0.00
MSLP
1009.63 1010.07 1010.69 1011.15 1011.52 1011.88 1011.99 1012.11 1012.29 1012.27 1012.31 1012.35 1012.34 1012.31 1012.30 1012.30 1012.29 1012.10 1012.08 1012.03 1012.12 1012.39 1012.51 1012.86 1013.13 1013.38 1013.24 1013.51 1013.34 1012.99 1012.82 1012.96 1013.22 1015.22 1016.33 1016.73 1016.79 1016.76 1016.52 1016.50 1016.28 1016.54 1017.20
1008.97 1009.61 1010.11 1010.64 1011.01 1011.23 1011.49 1011.62 1011.78 1011.86 1011.92 1011.96 1011.99 1012.04 1012.07 1012.05 1011.94 1011.87 1011.63 1011.38 1011.45 1011.83 1012.35 1012.59 1012.91 1012.96 1013.42 1013.60 1013.45 1013.28 1013.36 1013.25 1013.57 1015.02 1016.04 1016.18 1016.50 1016.37 1016.25 1016.39 1015.93 1016.83 1017.03
1008.68 1009.31 1009.96 1010.37 1010.80 1011.01 1011.10 1011.24 1011.39 1011.43 1011.46 1011.34 1011.19 1011.17 1011.25 1011.32 1011.38 1011.30 1011.46 1011.41 1011.37 1011.37 1012.08 1012.55 1012.73 1013.04 1013.43 1013.67 1013.59 1013.26 1012.96 1013.22 1013.75 1014.87 1015.53 1015.84 1015.85 1016.09 1016.11 1015.94 1016.05 1016.06 1017.05
1009.16 1009.64 1009.83 1010.08 1010.40 1010.57 1010.59 1010.61 1010.70 1010.72 1010.71 1010.60 1010.40 1010.32 1010.36 1010.43 1010.57 1010.61 1010.87 1010.88 1010.97 1011.15 1011.82 1012.32 1012.71 1012.85 1013.32 1013.79 1013.55 1013.69 1013.46 1013.63 1014.09 1014.42 1014.87 1015.45 1015.76 1015.75 1015.74 1015.51 1015.75 1016.45 1017.30
1009.83 1010.18 1010.80 1010.68 1010.31 1010.67 1010.42 1010.30 1010.36 1010.33 1010.00 1010.08 1009.84 1009.87 1009.88 1009.83 1009.92 1010.05 1010.27 1010.49 1010.70 1011.40 1012.00 1012.50 1012.80 1013.21 1013.79 1014.15 1013.82 1013.83 1013.87 1013.79 1013.58 1013.64 1014.72 1015.20 1014.66 1014.86 1014.92 1014.95 1015.86 1016.66 1017.18
1010.53 1011.05 1012.45 1012.43 1011.94 1011.53 1011.25 1010.55 1010.08 1010.42 1010.83 1010.34 1009.67 1009.79 1009.75 1009.39 1009.28 1009.56 1009.90 1010.07 1010.60 1011.22 1012.05 1012.39 1013.39 1014.02 1014.20 1014.68 1014.56 1014.66 1014.49 1014.20 1014.14 1013.54 1013.89 1014.58 1014.76 1014.67 1014.95 1015.32 1015.90 1016.53 1017.04
1011.15 1011.30 1010.99 1012.82 1013.33 1011.67 1011.57 1010.92 1009.38 1009.79 1010.53 1010.38 1009.66 1009.75 1009.60 1009.43 1010.32 1010.13 1009.91 1010.17 1010.40 1011.17 1011.82 1011.87 1012.92 1013.35 1014.28 1014.88 1014.88 1014.92 1014.74 1014.97 1015.15 1014.88 1014.44 1014.71 1015.26 1015.21 1015.20 1015.16 1015.75 1016.36 1016.64
1011.69 1012.26 1012.46 1012.32 1012.15 1012.33 1011.64 1010.58 1010.19 1009.85 1009.91 1009.55 1009.06 1009.07 1009.16 1010.23 1010.00 1010.28 1010.54 1010.43 1010.81 1010.99 1011.29 1011.39 1012.04 1013.08 1013.82 1014.84 1014.52 1014.55 1014.69 1014.93 1015.59 1014.97 1015.32 1015.61 1015.87 1015.63 1015.42 1015.33 1015.61 1015.66 1016.14
1012.27 1012.39 1012.39 1012.28 1012.39 1012.39 1011.48 1011.13 1010.13 1009.58 1009.66 1009.34 1008.89 1009.46 1009.60 1010.04 1010.45 1010.34 1010.36 1010.33 1010.56 1010.92 1011.23 1010.62 1011.10 1011.90 1012.89 1014.55 1014.65 1014.56 1014.63 1015.26 1015.86 1016.00 1016.57 1016.57 1016.56 1016.64 1016.23 1015.56 1014.70 1015.06 1015.41
1012.42 1012.45 1012.20 1012.04 1011.95 1011.51 1011.30 1010.35 1009.91 1009.51 1009.24 1009.04 1008.62 1009.07 1009.26 1009.88 1010.47 1010.40 1010.68 1010.48 1010.84 1011.07 1011.25 1011.17 1011.30 1011.91 1011.90 1013.53 1014.53 1014.67 1014.68 1015.20 1015.32 1015.87 1016.58 1016.84 1016.52 1016.43 1016.24 1015.51 1014.72 1014.85 1014.83
1012.28 1011.94 1012.07 1011.81 1011.52 1011.30 1010.86 1010.36 1009.98 1009.47 1009.05 1009.06 1008.69 1008.74 1008.90 1009.23 1009.33 1010.26 1010.69 1010.86 1010.97 1011.14 1011.29 1011.66 1011.96 1012.24 1012.61 1012.93 1014.35 1014.56 1014.45 1015.11 1015.61 1015.47 1015.42 1015.75 1015.86 1015.90 1015.29 1015.38 1015.58 1014.86 1014.96
1012.47 1012.46 1012.19 1012.05 1012.07 1011.85 1011.54 1011.04 1010.47 1009.95 1009.55 1009.27 1008.88 1008.63 1008.10 1008.74 1009.46 1010.44 1010.90 1011.24 1011.16 1011.10 1011.29 1011.43 1011.64 1012.78 1012.61 1013.29 1014.24 1014.64 1014.79 1014.95 1014.86 1014.89 1014.70 1014.87 1015.03 1015.01 1015.69 1015.89 1016.23 1016.14 1015.83
1012.38 1012.24 1012.10 1011.99 1011.98 1012.10 1011.98 1011.35 1010.76 1010.11 1010.04 1009.89 1009.55 1008.93 1008.64 1008.28 1009.63 1010.25 1011.02 1011.43 1011.24 1011.27 1011.11 1011.47 1011.85 1012.62 1013.10 1013.99 1014.42 1014.68 1014.94 1014.59 1014.03 1014.14 1014.31 1014.66 1015.16 1015.67 1016.33 1016.43 1016.50 1016.52 1016.26
1012.55 1012.60 1012.42 1012.12 1011.94 1011.94 1012.21 1011.44 1011.39 1011.02 1010.82 1010.80 1010.45 1009.83 1008.92 1008.57 1009.33 1010.42 1010.97 1011.15 1011.56 1011.09 1011.07 1011.69 1012.40 1012.80 1013.32 1013.94 1014.68 1014.85 1014.33 1013.62 1013.51 1013.54 1013.94 1014.60 1015.32 1015.83 1015.75 1015.84 1015.90 1015.93 1015.94
1012.50 1012.40 1012.33 1012.00 1011.86 1011.86 1012.01 1012.15 1012.07 1011.93 1012.43 1012.28 1011.85 1011.59 1011.08 1010.05 1011.09 1011.52 1011.75 1011.22 1011.21 1010.87 1011.16 1012.18 1012.65 1012.97 1013.18 1013.67 1014.01 1014.09 1013.88 1013.23 1013.39 1013.54 1014.03 1014.90 1015.15 1015.19 1015.36 1015.52 1015.44 1015.45 1015.79
1012.08 1012.08 1012.29 1012.10 1012.00 1011.91 1012.06 1011.95 1012.34 1012.51 1012.76 1012.82 1012.59 1012.67 1012.09 1011.98 1012.17 1012.13 1012.06 1011.52 1011.08 1010.89 1011.11 1011.81 1012.18 1012.69 1012.70 1012.80 1013.28 1013.34 1013.05 1012.96 1013.11 1013.34 1014.01 1014.33 1014.66 1014.87 1015.12 1015.38 1015.41 1015.31 1015.31
1012.80 1012.67 1012.47 1012.03 1011.88 1011.89 1012.02 1012.16 1012.44 1012.24 1012.59 1012.59 1012.74 1012.68 1012.67 1012.62 1012.06 1011.65 1011.56 1011.57 1011.10 1011.28 1011.02 1011.34 1011.70 1011.91 1012.16 1012.29 1012.25 1012.16 1012.21 1012.30 1012.88 1013.15 1013.80 1014.08 1014.41 1014.60 1015.18 1015.20 1015.16 1015.17 1015.27
1012.86 1012.99 1012.74 1012.63 1012.24 1012.02 1012.32 1012.69 1013.16 1013.09 1012.84 1012.68 1012.87 1012.49 1012.30 1012.29 1012.17 1011.70 1011.34 1011.54 1011.41 1011.47 1011.00 1011.14 1011.22 1011.36 1011.62 1011.69 1011.26 1011.21 1011.53 1011.86 1012.37 1012.96 1013.42 1014.27 1014.44 1014.32 1014.92 1014.85 1015.18 1015.01 1015.28
1013.15 1013.03 1013.34 1013.06 1012.66 1012.74 1012.55 1012.49 1013.42 1013.46 1013.23 1012.77 1012.71 1012.46 1012.35 1012.08 1011.99 1011.79 1011.45 1011.40 1011.31 1011.24 1011.03 1010.97 1010.88 1010.82 1011.01 1011.24 1011.41 1011.27 1011.14 1011.68 1012.28 1012.71 1013.34 1014.16 1013.80 1014.01 1014.44 1014.35 1014.65 1015.08 1015.12
1012.99 1013.68 1013.60 1013.43 1013.09 1012.68 1012.68 1012.71 1013.30 1013.64 1013.56 1013.20 1012.86 1013.04 1013.10 1012.01 1011.83 1011.44 1011.13 1010.98 1010.77 1010.74 1010.82 1010.56 1010.65 1010.74 1011.17 1011.37 1011.59 1011.83 1011.81 1012.19 1012.86 1013.38 1013.96 1014.37 1013.78 1013.81 1014.29 1014.31 1014.49 1014.97 1015.03
1013.24 1013.14 1013.70 1013.24 1013.49 1013.39 1013.49 1013.92 1014.25 1014.11 1013.84 1013.59 1013.62 1013.70 1013.92 1013.05 1012.40 1012.00 1011.62 1011.61 1011.44 1011.08 1010.99 1010.61 1010.20 1010.20 1010.80 1011.31 1011.64 1011.82 1012.10 1012.42 1012.97 1013.51 1014.31 1014.43 1014.50 1014.09 1014.23 1014.68 1014.90 1015.02 1015.07
1013.42 1013.47 1013.68 1013.76 1014.09 1014.27 1015.02 1015.00 1014.65 1014.53 1014.40 1014.13 1013.99 1013.84 1013.90 1013.23 1012.85 1012.54 1012.49 1012.24 1012.11 1011.95 1011.70 1011.36 1011.06 1010.91 1010.72 1010.92 1011.28 1011.66 1012.02 1012.35 1012.85 1013.43 1013.93 1014.32 1014.49 1014.35 1014.61 1014.91 1015.28 1015.10 1014.95
1014.07 1014.19 1014.43 1014.78 1015.31 1015.63 1015.38 1015.28 1015.17 1015.04 1014.89 1014.61 1014.38 1014.20 1014.15 1013.94 1013.63 1013.22 1012.99 1012.96 1012.81 1012.46 1012.13 1011.91 1011.86 1011.68 1011.34 1011.04 1010.91 1011.45 1011.83 1012.10 1012.49 1013.14 1013.59 1013.99 1014.12 1014.44 1014.64 1014.63 1015.07 1015.28 1015.08
1014.60 1014.75 1015.25 1015.89 1016.27 1016.54 1016.28 1016.09 1015.73 1015.56 1015.42 1015.17 1015.00 1014.88 1014.75 1014.54 1014.29 1013.93 1013.58 1013.25 1012.99 1012.91 1012.74 1012.56 1012.44 1012.18 1012.33 1012.15 1011.95 1011.59 1011.34 1011.62 1012.16 1012.75 1013.13 1013.56 1014.13 1014.52 1014.44 1014.54 1014.73 1015.01 1015.10
1015.18 1015.60 1016.53 1017.03 1017.22 1017.28 1016.97 1016.64 1016.33 1016.14 1015.96 1015.83 1015.63 1015.30 1015.24 1015.11 1014.78 1014.52 1014.32 1013.81 1013.71 1013.27 1013.11 1012.83 1013.07 1013.06 1012.93 1012.69 1012.55 1012.46 1012.68 1012.99 1012.30 1012.39 1012.87 1013.36 1013.71 1014.09 1014.38 1014.48 1014.76 1015.03 1015.46
1015.67 1016.55 1017.81 1017.92 1017.80 1017.69 1017.48 1017.21 1016.93 1016.68 1016.56 1016.47 1016.30 1016.05 1015.87 1015.57 1015.52 1015.20 1015.15 1014.49 1014.01 1013.48 1013.15 1012.83 1012.79 1012.75 1012.61 1012.52 1012.62 1012.88 1012.97 1013.13 1012.98 1012.82 1012.44 1012.88 1013.37 1013.75 1014.03 1013.84 1014.39 1014.76 1015.35
Thickness
5826 5825 5821 5819 5818 5816 5814 5813 5812 5812 5811 5810 5809 5807 5806 5803 5802 5801 5798 5796 5791 5785 5783 5775 5766 5757 5752 5743 5736 5732 5727 5718 5702 5679 5662 5650 5640 5634 5629 5623 5620 5615 5606
5827 5823 5820 5818 5817 5816 5813 5814 5813 5810 5810 5808 5809 5806 5805 5804 5804 5801 5800 5800 5795 5787 5780 5776 5768 5762 5751 5744 5738 5730 5722 5718 5705 5683 5668 5659 5648 5642 5636 5630 5629 5619 5614
5826 5823 5817 5814 5812 5812 5812 5812 5811 5811 5810 5812 5812 5810 5808 5807 5805 5804 5800 5799 5796 5792 5782 5775 5771 5762 5750 5743 5737 5734 5729 5721 5709 5689 5675 5667 5660 5652 5643 5640 5635 5631 5621
5817 5814 5812 5812 5811 5810 5812 5813 5813 5813 5812 5813 5814 5813 5812 5811 5808 5806 5802 5801 5796 5792 5784 5778 5771 5764 5754 5744 5741 5733 5728 5719 5708 5698 5686 5673 5664 5660 5652 5646 5642 5636 5627
5805 5806 5799 5802 5806 5804 5806 5808 5810 5811 5814 5813 5813 5814 5813 5811 5810 5807 5805 5801 5797 5789 5781 5773 5769 5762 5751 5743 5742 5735 5728 5720 5716 5709 5690 5680 5679 5671 5663 5658 5644 5639 5635
5795 5790 5779 5778 5784 5788 5790 5798 5805 5802 5799 5806 5810 5807 5808 5812 5810 5806 5804 5802 5794 5786 5777 5773 5763 5754 5749 5739 5736 5731 5727 5723 5713 5712 5703 5690 5685 5682 5673 5663 5652 5647 5643
5779 5780 5783 5770 5762 5770 5779 5787 5804 5804 5796 5798 5804 5803 5805 5807 5795 5790 5795 5796 5791 5784 5778 5774 5766 5761 5750 5739 5733 5731 5727 5718 5710 5704 5701 5696 5685 5682 5677 5671 5663 5654 5651
5769 5765 5765 5763 5764 5764 5773 5782 5785 5793 5792 5797 5803 5804 5804 5794 5794 5788 5785 5790 5785 5782 5781 5779 5772 5761 5755 5740 5738 5734 5729 5724 5712 5710 5700 5694 5690 5687 5682 5677 5671 5669 5663
5755 5756 5756 5756 5755 5756 5766 5768 5781 5785 5787 5791 5800 5792 5792 5790 5786 5785 5782 5784 5780 5777 5774 5780 5777 5770 5760 5742 5738 5732 5729 5721 5713 5707 5694 5691 5686 5681 5683 5683 5685 5678 5674
5743 5745 5752 5754 5755 5757 5759 5766 5773 5780 5784 5788 5793 5789 5791 5784 5780 5779 5775 5776 5770 5768 5769 5769 5768 5768 5764 5751 5740 5732 5726 5718 5716 5709 5698 5690 5691 5687 5686 5688 5692 5685 5687
5739 5743 5745 5750 5754 5757 5759 5765 5766 5772 5778 5779 5786 5785 5786 5785 5787 5775 5768 5766 5762 5758 5757 5755 5760 5758 5753 5754 5740 5735 5731 5718 5711 5710 5708 5701 5697 5695 5699 5695 5690 5693 5688
5728 5729 5734 5738 5740 5743 5746 5751 5760 5765 5769 5772 5778 5780 5788 5784 5779 5766 5759 5753 5754 5749 5746 5749 5753 5746 5751 5748 5739 5731 5725 5720 5717 5712 5712 5708 5705 5703 5696 5691 5687 5685 5685
5720 5722 5726 5731 5733 5732 5733 5739 5747 5759 5759 5761 5764 5772 5773 5781 5771 5764 5754 5747 5746 5743 5745 5744 5743 5741 5744 5737 5735 5729 5722 5722 5722 5717 5712 5709 5706 5699 5691 5689 5685 5682 5682
5710 5710 5714 5718 5721 5725 5725 5734 5735 5741 5744 5746 5752 5757 5767 5774 5771 5760 5755 5751 5743 5749 5747 5743 5739 5740 5739 5738 5730 5725 5727 5730 5725 5722 5716 5711 5705 5698 5697 5695 5692 5688 5684
5706 5707 5707 5711 5714 5716 5717 5718 5722 5725 5723 5729 5735 5736 5743 5755 5750 5745 5742 5748 5747 5751 5748 5739 5734 5734 5737 5734 5730 5728 5728 5732 5726 5721 5715 5707 5704 5703 5699 5698 5697 5694 5684
5700 5702 5700 5702 5704 5707 5707 5710 5708 5709 5709 5710 5716 5719 5728 5729 5730 5734 5735 5738 5744 5745 5745 5739 5737 5732 5733 5735 5731 5729 5732 5729 5728 5723 5715 5712 5707 5704 5700 5696 5696 5696 5694
5685 5687 5690 5693 5695 5695 5695 5696 5694 5701 5700 5703 5704 5708 5712 5713 5721 5729 5732 5733 5739 5738 5744 5740 5737 5736 5735 5735 5736 5737 5733 5732 5728 5723 5715 5712 5708 5707 5698 5697 5697 5697 5695
5678 5672 5678 5679 5682 5684 5682 5679 5677 5679 5684 5693 5692 5699 5705 5707 5710 5718 5725 5725 5731 5731 5736 5735 5735 5735 5734 5734 5741 5739 5735 5732 5728 5722 5717 5709 5707 5706 5699 5699 5695 5698 5694
5666 5667 5663 5667 5671 5668 5671 5672 5663 5665 5671 5678 5681 5688 5694 5698 5701 5705 5712 5720 5723 5726 5728 5729 5732 5734 5733 5731 5729 5732 5733 5729 5724 5721 5714 5706 5710 5707 5701 5704 5700 5693 5695
5659 5652 5651 5654 5657 5661 5661 5661 5655 5652 5654 5661 5668 5670 5673 5688 5694 5702 5706 5712 5718 5721 5723 5725 5725 5725 5723 5721 5720 5719 5721 5719 5714 5711 5704 5700 5706 5705 5699 5699 5698 5694 5695
5648 5649 5642 5647 5642 5643 5642 5637 5634 5636 5640 5643 5646 5648 5649 5662 5676 5684 5691 5693 5698 5705 5710 5715 5721 5723 5719 5716 5714 5713 5713 5712 5708 5703 5695 5694 5695 5697 5696 5692 5690 5688 5690
5639 5636 5634 5632 5627 5624 5615 5616 5619 5621 5623 5626 5628 5630 5633 5646 5656 5664 5668 5675 5680 5686 5692 5699 5705 5709 5712 5711 5710 5708 5706 5705 5702 5698 5694 5692 5691 5691 5688 5685 5679 5681 5683
5625 5621 5617 5612 5605 5600 5604 5604 5604 5605 5605 5608 5611 5613 5615 5621 5631 5640 5648 5654 5661 5669 5676 5683 5688 5692 5695 5700 5703 5701 5700 5699 5698 5695 5691 5689 5688 5685 5683 5683 5678 5674 5677
5613 5609 5602 5593 5586 5582 5583 5583 5583 5582 5583 5585 5587 5590 5593 5599 5607 5618 5627 5637 5646 5652 5658 5666 5672 5677 5679 5682 5687 5691 5695 5695 5693 5689 5688 5687 5682 5679 5680 5678 5676 5673 5671
5601 5594 5582 5573 5566 5562 5564 5564 5563 5562 5560 5559 5562 5568 5571 5578 5587 5597 5606 5616 5624 5634 5642 5651 5653 5658 5663 5669 5674 5678 5680 5679 5685 5685 5682 5681 5680 5677 5673 5673 5670 5668 5662
5586 5574 5559 5554 5550 5548 5547 5545 5543 5542 5540 5540 5541 5545 5550 5559 5566 5576 5584 5597 5608 5619 5628 5636 5643 5649 5655 5660 5663 5667 5669 5670 5672 5677 5678 5677 5675 5672 5670 5672 5667 5664 5657